Weather History for Fremont, NE

Change the Weather History Date:

Monday, February 18, 2013

  Actual Average Record
Temperature  
Mean Temperature 31 °F -  
Max Temperature 41 °F 41 °F 68 °F (1981)
Min Temperature 21 °F 20 °F -14 °F (1978)
Degree Days  
Heating Degree Days 34    
Moisture  
Dew Point 25 °F    
Average Humidity 79    
Maximum Humidity 97    
Minimum Humidity 60    
Precipitation  
Precipitation 0.00 in - - ()
Sea Level Pressure  
Sea Level Pressure 29.80 in    
Wind  
Wind Speed 12 mph (NW)    
Max Wind Speed 32 mph    
Max Gust Speed 40 mph    
Visibility 10 miles    
Events Snow    
Averages and records for this station are not official NWS values.
T = Trace of Precipitation, MM = Missing Value Source: NWS Daily Summary

Daily Weather History Graph

Daily Weather History Graph

Search for Another Location

Airport:

Trip Planner

Search our weather history database for the weather conditions in past years. The results will help you decide how hot, cold, wet, or windy it might be!

Date:

Astronomy

Feb. 18, 2013 Rise Set
Actual Time 7:16 AM CST 6:03 PM CST
Civil Twilight 6:48 AM CST 6:32 PM CST
Nautical Twilight 6:16 AM CST 7:04 PM CST
Astronomical Twilight 5:44 AM CST 7:36 PM CST
Moon 11:48 AM CST (2/18) 1:59 AM CST (2/18)
Length of Visible Light 11h 43m
Length of Day
10h 47m
First Quarter, 58% of the Moon is Illuminated
Feb 18
First Quarter
Feb 25
Full
Mar 4
Last Quarter
Mar 11
New
Mar 19
First Quarter

Hourly Weather History & Observations

Time (CST) Temp. Windchill Dew Point Humidity Pressure Visibility Wind Dir Wind Speed Gust Speed Precip Events Conditions
12:15 AM 41.5 °F - 33.4 °F 73% 29.57 in 10.0 mi Calm Calm - N/A   Clear
12:35 AM 37.6 °F 34.0 °F 32.4 °F 81% 29.57 in 10.0 mi West 4.6 mph - N/A   Clear
12:55 AM 34.7 °F 26.4 °F 32.0 °F 90% 29.59 in 10.0 mi NW 11.5 mph - N/A   Clear
1:15 AM 35.6 °F - 32.2 °F 87% 29.58 in 10.0 mi Calm Calm - N/A   Clear
1:35 AM 32.9 °F - 31.3 °F 94% 29.58 in 10.0 mi Calm Calm - N/A   Clear
1:55 AM 33.3 °F - 31.8 °F 94% 29.58 in 10.0 mi Calm Calm - N/A   Clear
2:15 AM 35.6 °F - 32.0 °F 87% 29.59 in 10.0 mi Calm Calm - N/A   Clear
2:35 AM 37.4 °F - 32.5 °F 83% 29.58 in 10.0 mi Calm Calm - N/A   Clear
2:55 AM 37.9 °F 35.5 °F 32.7 °F 81% 29.59 in 10.0 mi NNW 3.5 mph - N/A   Clear
3:15 AM 38.3 °F 33.9 °F 32.7 °F 80% 29.59 in 10.0 mi North 5.8 mph - N/A   Clear
3:35 AM 38.5 °F 35.0 °F 32.9 °F 80% 29.59 in 10.0 mi North 4.6 mph - N/A   Clear
3:55 AM 34.5 °F 30.4 °F 32.0 °F 90% 29.60 in 10.0 mi NW 4.6 mph - N/A   Clear
4:15 AM 32.7 °F 26.4 °F 30.6 °F 92% 29.60 in 10.0 mi WNW 6.9 mph - N/A   Clear
4:35 AM 32.9 °F 27.5 °F 31.6 °F 95% 29.61 in 10.0 mi NW 5.8 mph - N/A   Clear
4:55 AM 32.4 °F 25.3 °F 31.6 °F 97% 29.61 in 10.0 mi NNW 8.1 mph - N/A   Clear
5:15 AM 36.7 °F 29.4 °F 32.9 °F 86% 29.62 in 10.0 mi NNW 10.4 mph - N/A   Clear
5:35 AM 36.5 °F 29.7 °F 32.9 °F 87% 29.62 in 10.0 mi NNW 9.2 mph - N/A   Clear
5:55 AM 36.5 °F 29.7 °F 32.4 °F 85% 29.61 in 10.0 mi NNW 9.2 mph - N/A   Clear
6:15 AM 35.6 °F 28.6 °F 32.0 °F 87% 29.62 in 10.0 mi NNW 9.2 mph - N/A   Clear
6:35 AM 35.8 °F 29.4 °F 32.0 °F 86% 29.62 in 10.0 mi NNW 8.1 mph - N/A   Clear
6:55 AM 35.6 °F 30.7 °F 32.0 °F 87% 29.63 in 10.0 mi NNW 5.8 mph - N/A   Clear
7:15 AM 36.0 °F 28.0 °F 32.2 °F 86% 29.65 in 10.0 mi NNW 11.5 mph - N/A   Mostly Cloudy
7:35 AM 37.0 °F 28.5 °F 32.4 °F 83% 29.65 in 10.0 mi NNW 13.8 mph 20.7 mph N/A   Overcast
7:55 AM 37.4 °F 27.8 °F 32.2 °F 81% 29.68 in 10.0 mi NNW 17.3 mph 20.7 mph N/A   Overcast
8:15 AM 37.4 °F 27.2 °F 32.0 °F 81% 29.68 in 10.0 mi NNW 19.6 mph 25.3 mph N/A   Overcast
8:35 AM 37.4 °F 27.5 °F 32.0 °F 81% 29.69 in 10.0 mi NW 18.4 mph 23.0 mph N/A   Overcast
8:55 AM 37.6 °F 26.9 °F 32.0 °F 80% 29.71 in 10.0 mi NW 21.9 mph 27.6 mph N/A   Overcast
9:15 AM 37.6 °F 26.9 °F 31.5 °F 79% 29.71 in 10.0 mi NNW 21.9 mph 32.2 mph N/A   Overcast
9:35 AM 36.7 °F 25.4 °F 31.1 °F 80% 29.72 in 10.0 mi NW 23.0 mph 33.4 mph N/A   Overcast
9:55 AM 33.8 °F 21.9 °F 32.9 °F 96% 29.74 in 0.5 mi NNW 21.9 mph 31.1 mph N/A Snow Snow
10:15 AM 32.9 °F 20.4 °F 31.8 °F 96% 29.75 in 2.0 mi NNW 23.0 mph 28.8 mph N/A Snow Light Snow
10:35 AM 33.1 °F 20.6 °F 29.5 °F 87% 29.77 in 10.0 mi NNW 23.0 mph 29.9 mph N/A   Mostly Cloudy
10:55 AM 32.5 °F 19.9 °F 28.6 °F 85% 29.79 in 10.0 mi NNW 23.0 mph 32.2 mph N/A   Overcast
11:15 AM 32.0 °F 19.8 °F 27.3 °F 83% 29.81 in 10.0 mi NNW 20.7 mph 32.2 mph N/A   Overcast
11:35 AM 31.8 °F 17.9 °F 26.6 °F 81% 29.82 in 10.0 mi NW 27.6 mph 36.8 mph N/A   Overcast
11:55 AM 31.1 °F 18.6 °F 25.9 °F 81% 29.83 in 10.0 mi NW 20.7 mph 38.0 mph N/A   Overcast
12:15 PM 31.1 °F 16.6 °F 24.3 °F 76% 29.84 in 10.0 mi NW 28.8 mph 34.5 mph N/A   Overcast
12:35 PM 30.2 °F 15.4 °F 23.5 °F 76% 29.84 in 10.0 mi NW 28.8 mph 35.7 mph N/A   Overcast
12:55 PM 29.8 °F 15.2 °F 23.9 °F 79% 29.84 in 10.0 mi NW 27.6 mph 34.5 mph N/A   Overcast
1:15 PM 30.6 °F 16.4 °F 23.0 °F 74% 29.86 in 10.0 mi NW 26.5 mph 35.7 mph N/A   Mostly Cloudy
1:35 PM 30.2 °F 15.7 °F 22.1 °F 72% 29.86 in 10.0 mi NNW 27.6 mph 35.7 mph N/A   Mostly Cloudy
1:55 PM 30.0 °F 15.2 °F 21.4 °F 70% 29.87 in 10.0 mi NW 28.8 mph 35.7 mph N/A   Overcast
2:15 PM 29.7 °F 14.0 °F 20.3 °F 68% 29.88 in 10.0 mi NW 32.2 mph 39.1 mph N/A   Overcast
2:35 PM 29.8 °F 14.7 °F 19.8 °F 66% 29.89 in 10.0 mi NW 29.9 mph 39.1 mph N/A   Overcast
2:55 PM 30.2 °F 16.5 °F 19.0 °F 63% 29.89 in 10.0 mi NW 24.2 mph 35.7 mph N/A   Overcast
3:15 PM 30.4 °F 16.2 °F 18.5 °F 61% 29.90 in 10.0 mi NW 26.5 mph 35.7 mph N/A   Overcast
3:35 PM 31.3 °F 17.1 °F 18.9 °F 60% 29.90 in 10.0 mi NW 27.6 mph 35.7 mph N/A   Scattered Clouds
3:55 PM 30.6 °F 15.7 °F 18.3 °F 60% 29.91 in 10.0 mi NW 29.9 mph 35.7 mph N/A   Scattered Clouds
4:15 PM 31.3 °F 16.4 °F 18.7 °F 60% 29.91 in 10.0 mi NW 31.1 mph 40.3 mph N/A   Scattered Clouds
4:35 PM 30.7 °F 15.5 °F 18.5 °F 60% 29.92 in 10.0 mi NW 32.2 mph 39.1 mph N/A   Scattered Clouds
5:15 PM 30.2 °F 16.5 °F 18.9 °F 63% 29.94 in 10.0 mi NW 24.2 mph 31.1 mph N/A   Scattered Clouds
5:35 PM 29.3 °F 16.2 °F 18.3 °F 64% 29.94 in 10.0 mi NW 20.7 mph 29.9 mph N/A   Scattered Clouds
5:55 PM 27.7 °F 15.6 °F 18.1 °F 67% 29.96 in 10.0 mi NW 16.1 mph 23.0 mph N/A   Scattered Clouds
6:15 PM 27.5 °F 15.4 °F 18.0 °F 67% 29.96 in 10.0 mi NW 16.1 mph 24.2 mph N/A   Clear
6:35 PM 26.8 °F 14.5 °F 18.1 °F 70% 29.97 in 10.0 mi NW 16.1 mph 23.0 mph N/A   Clear
6:55 PM 26.6 °F 12.0 °F 16.3 °F 65% 29.99 in 10.0 mi NW 23.0 mph 35.7 mph N/A   Clear
7:15 PM 25.7 °F 12.3 °F 16.7 °F 69% 29.99 in 10.0 mi NW 18.4 mph 25.3 mph N/A   Clear
7:35 PM 24.6 °F 13.8 °F 17.2 °F 74% 29.99 in 10.0 mi NW 11.5 mph - N/A   Clear
7:55 PM 24.3 °F 13.9 °F 17.6 °F 76% 30.00 in 10.0 mi NNW 10.4 mph - N/A   Clear
8:15 PM 23.0 °F 13.1 °F 17.4 °F 79% 30.00 in 10.0 mi NW 9.2 mph - N/A   Clear
8:35 PM 22.1 °F 10.6 °F 17.6 °F 83% 30.01 in 10.0 mi NW 11.5 mph - N/A   Clear
8:55 PM 21.6 °F 12.1 °F 17.4 °F 84% 30.01 in 10.0 mi NW 8.1 mph - N/A   Clear
9:15 PM 21.9 °F 10.4 °F 17.8 °F 84% 30.01 in 10.0 mi NW 11.5 mph - N/A   Clear
9:35 PM 22.5 °F 11.7 °F 17.8 °F 82% 30.02 in 10.0 mi NW 10.4 mph - N/A   Scattered Clouds
9:55 PM 22.5 °F 11.7 °F 17.6 °F 82% 30.04 in 10.0 mi NW 10.4 mph - N/A   Mostly Cloudy
10:15 PM 22.6 °F 10.1 °F 18.0 °F 82% 30.04 in 10.0 mi NW 13.8 mph 19.6 mph N/A   Overcast
10:35 PM 23.0 °F 10.6 °F 18.1 °F 82% 30.05 in 10.0 mi NW 13.8 mph - N/A   Mostly Cloudy
10:55 PM 23.5 °F 10.3 °F 18.3 °F 80% 30.06 in 10.0 mi NW 16.1 mph - N/A   Overcast
11:15 PM 23.5 °F 11.3 °F 18.1 °F 80% 30.06 in 10.0 mi NW 13.8 mph 19.6 mph N/A   Overcast
11:35 PM 23.5 °F 8.7 °F 17.6 °F 78% 30.06 in 10.0 mi NNW 20.7 mph 26.5 mph N/A   Overcast
11:55 PM 22.8 °F 8.9 °F 16.5 °F 77% 30.08 in 10.0 mi NW 17.3 mph 29.9 mph N/A   Overcast